Weather History for Laramie, WY

Change the Weather History Date:

Wednesday, November 28, 2012

  Actual Average Record
Temperature  
Mean Temperature 40 °F 24 °F  
Max Temperature 48 °F 35 °F 59 °F (1998)
Min Temperature 32 °F 13 °F -18 °F (1987)
Degree Days  
Heating Degree Days 25 41  
Month to date heating degree days 759 986  
Since 1 July heating degree days 1824 2229  
Cooling Degree Days 0 0  
Month to date cooling degree days 0 0  
Year to date cooling degree days 211 67  
Moisture  
Dew Point 9 °F    
Average Humidity 31    
Maximum Humidity 43    
Minimum Humidity 19    
Precipitation  
Precipitation 0.00 in 0.01 in 0.17 in (2010)
Month to date precipitation 0.16 0.51  
Year to date precipitation 6.06 10.57  
Sea Level Pressure  
Sea Level Pressure 30.07 in    
Wind  
Wind Speed 15 mph (SW)    
Max Wind Speed 29 mph    
Max Gust Speed 36 mph    
Visibility 10 miles    
Events      
T = Trace of Precipitation, MM = Missing Value Source: NWS Daily Summary

Daily Weather History Graph

Daily Weather History Graph

Search for Another Location

Airport:

Trip Planner

Search our weather history database for the weather conditions in past years. The results will help you decide how hot, cold, wet, or windy it might be!

Date:

Astronomy

Nov. 28, 2012 Rise Set
Actual Time 7:06 AM MST 4:34 PM MST
Civil Twilight 6:35 AM MST 5:05 PM MST
Nautical Twilight 6:01 AM MST 5:39 PM MST
Astronomical Twilight 5:28 AM MST 6:12 PM MST
Moon 4:51 PM MST 7:06 AM MST
Length of Visible Light 10h 29m
Length of Day
9h 28m
Full, 100% of the Moon is Illuminated
Nov 28
Full
Dec 6
Last Quarter
Dec 13
New
Dec 19
First Quarter
Dec 28
Full

Hourly Weather History & Observations

Time (MST) Temp. Windchill Dew Point Humidity Pressure Visibility Wind Dir Wind Speed Gust Speed Precip Events Conditions
12:53 AM 36.0 °F 28.0 °F 8.1 °F 31% 30.13 in 10.0 mi South 11.5 mph - N/A   Clear
1:53 AM 37.9 °F 27.9 °F 7.0 °F 28% 30.11 in 10.0 mi SW 19.6 mph - N/A   Clear
2:53 AM 37.9 °F 27.9 °F 5.0 °F 25% 30.12 in 10.0 mi WSW 19.6 mph - N/A   Clear
3:53 AM 37.9 °F 27.6 °F 5.0 °F 25% 30.11 in 10.0 mi SW 20.7 mph - N/A   Clear
5:53 AM 39.0 °F 30.6 °F 5.0 °F 24% 30.16 in 10.0 mi SW 15.0 mph - N/A   Clear
6:53 AM 37.0 °F 27.0 °F 5.0 °F 26% 30.20 in 10.0 mi South 18.4 mph 23.0 mph N/A   Clear
7:53 AM 37.9 °F 27.9 °F 6.1 °F 27% 30.17 in 10.0 mi SW 19.6 mph 23.0 mph N/A   Clear
8:53 AM 41.0 °F 31.9 °F 6.1 °F 24% 30.16 in 10.0 mi SW 19.6 mph - N/A   Clear
9:53 AM 41.0 °F 35.8 °F 6.1 °F 24% 30.16 in 10.0 mi WSW 8.1 mph - N/A   Clear
10:53 AM 42.1 °F 36.6 °F 6.1 °F 23% 30.12 in 10.0 mi SW 9.2 mph - N/A   Clear
11:53 AM 45.0 °F 37.1 °F 10.0 °F 24% 30.08 in 10.0 mi SW 19.6 mph - N/A   Clear
12:53 PM 46.9 °F - 10.0 °F 22% 30.04 in 10.0 mi West 19.6 mph - N/A   Clear
1:53 PM 48.0 °F - 8.1 °F 20% 30.01 in 10.0 mi WSW 18.4 mph - N/A   Clear
2:53 PM 46.9 °F - 9.0 °F 21% 29.98 in 10.0 mi SW 15.0 mph - N/A   Clear
3:53 PM 46.9 °F - 8.1 °F 21% 29.99 in 10.0 mi West 13.8 mph - N/A   Clear
4:53 PM 39.9 °F 31.1 °F 9.0 °F 28% 30.03 in 10.0 mi SW 17.3 mph - N/A   Clear
5:53 PM 37.0 °F 34.5 °F 8.1 °F 30% 30.04 in 10.0 mi SSW 3.5 mph - N/A   Clear
6:53 PM 36.0 °F 27.1 °F 10.0 °F 34% 30.04 in 10.0 mi West 13.8 mph - N/A   Clear
7:53 PM 37.9 °F 31.5 °F 10.9 °F 33% 30.03 in 10.0 mi SE 9.2 mph - N/A   Clear
8:53 PM 36.0 °F 28.5 °F 12.0 °F 37% 30.01 in 10.0 mi SW 10.4 mph - N/A   Clear
9:53 PM 35.1 °F 24.5 °F 14.0 °F 42% 30.01 in 10.0 mi SW 18.4 mph - N/A   Clear
10:53 PM 34.0 °F - 14.0 °F 44% 30.01 in 10.0 mi Calm Calm - N/A   Clear
11:53 PM 39.0 °F 30.3 °F 15.1 °F 38% 29.95 in 10.0 mi SW 16.1 mph - N/A   Clear